Terminal Aerodrome Forecast
Issued by NWS Green Bay, WI

Home | Current Version | Previous Version | Graphics & Text | Print | Product List | Glossary On
Versions: 1 2 3 4 5 6 7 8 9 10 11 12 13 14 15 16 17 18 19 20 21 22 23 24 25 26 27 28 29 30 31
000
FTUS43 KGRB 171100 RRA
TAFGRB
TAF
KGRB 171142Z 1712/1812 13014G22KT P6SM SCT015 OVC060 WS015/17040KT
      TEMPO 1712/1714 3SM -RASN BR BKN012
     FM171400 17011G18KT P6SM SCT015 OVC035
      TEMPO 1714/1718 BKN015
     FM171800 24010G18KT P6SM BKN025
     FM172200 28009KT P6SM BKN035
     FM180400 31005KT P6SM SCT035=

USA.gov is the U.S. government's official web portal to all federal, state and local government web resources and services.